Home   Weather   Saint George's   Past weeks

Flag for Grenada Past Weather in Saint George's, Grenada — Yesterday and Last 2 Weeks

Now
79 °F

Passing clouds.


Feels Like: 83 °F
Forecast: 75 / 79 °F
Wind: 14 mph from East

Location: Point Salines Airport

Current Time: Dec 9, 2016 at 12:06:49 am

Latest Report: Dec 8, 2016 at 11:00 pm


Visibility: N/A

Pressure: 29.92 "Hg

Humidity: 94%

Dew Point: 77 °F

Location of Saint George'sLocation

Past Weather in Saint George's — Graph

°F

Saint George's Temperature Yesterday

Maximum temperature yesterday: 86 °F (at 1:00 pm)
Minimum temperature yesterday: 77 °F (at 4:00 am)
Average temperature yesterday: 80 °F

High & Low Weather Summary for the Past Weeks

 TemperatureHumidityPressure
High90 °F (Dec 7, 12:00 pm)100% (Nov 25, 12:00 pm)29.98 "Hg (Nov 25, 12:00 pm)
Low75 °F (Nov 30, 8:00 am)48% (Nov 29, 1:00 am)29.74 "Hg (Nov 28, 3:00 pm)
Average82 °F85%29.87 "Hg
* Reported Nov 23 11:00 pm — Dec 8 11:00 pm, Saint George's, Weather by CustomWeather, © 2016

Note: Actual official high and low records may vary slightly from our data, if they occured in-between our weather recording intervals... More about our weather records

Advertising

Saint George's Weather History for the Previous 24 Hours

Scroll right to see more
 ConditionsComfort  
Time TempWeatherWind HumidityBarometerVisibility
11:00 pm
Thu, Dec 8
79 °FPassing clouds.14 mph94%29.92 "HgN/A
10:00 pm77 °FLight rain. Partly cloudy.13 mph94%29.95 "HgN/A
9:00 pm77 °FLight rain. Partly cloudy.14 mph100%29.95 "HgN/A
8:00 pm77 °FThunderstorms. Partly cloudy.12 mph100%29.92 "Hg4 mi
7:00 pm79 °FThunderstorms. Partly cloudy.12 mph94%29.89 "HgN/A
6:00 pm81 °FThundershowers. Passing clouds.12 mph89%29.89 "HgN/A
5:00 pm82 °FScattered clouds.17 mph84%29.86 "HgN/A
4:00 pm82 °FScattered clouds.12 mph84%29.86 "HgN/A
3:00 pm84 °FScattered clouds.20 mph79%29.86 "HgN/A
2:00 pm84 °FPartly sunny.14 mph79%29.86 "HgN/A
1:00 pm86 °FScattered clouds.17 mph79%29.89 "HgN/A
12:00 pm84 °FScattered clouds.14 mph84%29.92 "HgN/A
11:00 am82 °FScattered clouds.20 mph84%29.92 "HgN/A
10:00 am84 °FScattered clouds.20 mph84%29.95 "HgN/A
9:00 am79 °FScattered clouds.14 mph94%29.95 "HgN/A
8:00 am82 °FScattered clouds.20 mph84%29.92 "HgN/A
7:00 am79 °FBroken clouds.15 mph94%29.89 "HgN/A
6:00 am81 °FSprinkles. Passing clouds.14 mph89%29.86 "HgN/A
5:00 am77 °FPartly cloudy.6 mph100%29.86 "HgN/A
4:00 am77 °FThunderstorms. Partly cloudy.12 mph100%29.86 "HgN/A
3:00 am81 °FThundershowers. Passing clouds.9 mph89%29.83 "HgN/A
2:00 am79 °FPassing clouds.10 mph94%29.86 "HgN/A
1:00 am79 °FPassing clouds.9 mph94%29.86 "HgN/A
12:00 am79 °FPassing clouds.5 mph94%29.89 "HgN/A
Weather by CustomWeather, © 2016

See weather overviewHow to use our weather pages